This is the latest recevied weather packets stored in our database for station/object CA3DJL-10. If no packets are shown the sender has not sent any weather packets the latest 10 day(s).
| Time | Temp. | Humidity | Pressure | Rain* | Wind** | Luminosity | Snow |
|---|---|---|---|---|---|---|---|
| 1777468629 | 17.22° C | 38% | 985 hPa | - | - | - | - |
| 1777467728 | 16.11° C | 37% | 985 hPa | - | - | - | - |
| 1777466827 | 15.56° C | 37% | 985 hPa | - | - | - | - |
| 1777465926 | 15° C | 35% | 985 hPa | - | - | - | - |
| 1777465025 | 15° C | 35% | 985 hPa | - | - | - | - |
| 1777464124 | 15° C | 34% | 985 hPa | - | - | - | - |
| 1777463222 | 15° C | 35% | 985 hPa | - | - | - | - |
| 1777462321 | 15° C | 35% | 985 hPa | - | - | - | - |
| 1777461420 | 15° C | 36% | 985 hPa | - | - | - | - |
| 1777460519 | 15.56° C | 36% | 985 hPa | - | - | - | - |
| 1777459618 | 15.56° C | 37% | 985 hPa | - | - | - | - |
| 1777458717 | 15.56° C | 36% | 985 hPa | - | - | - | - |
| 1777457816 | 15.56° C | 34% | 985 hPa | - | - | - | - |
| 1777456915 | 16.11° C | 34% | 985 hPa | - | - | - | - |
| 1777456014 | 16.11° C | 34% | 986 hPa | - | - | - | - |
| 1777455112 | 16.11° C | 34% | 985 hPa | - | - | - | - |
| 1777454211 | 16.67° C | 34% | 985 hPa | - | - | - | - |
| 1777453310 | 16.67° C | 34% | 985 hPa | - | - | - | - |
| 1777452409 | 16.67° C | 35% | 986 hPa | - | - | - | - |
| 1777451508 | 17.22° C | 36% | 986 hPa | - | - | - | - |
| 1777450607 | 17.22° C | 38% | 986 hPa | - | - | - | - |
| 1777449706 | 17.22° C | 41% | 986 hPa | - | - | - | - |
| 1777448805 | 17.22° C | 37% | 985 hPa | - | - | - | - |
| 1777447904 | 17.78° C | 32% | 985 hPa | - | - | - | - |
| 1777447002 | 17.78° C | 32% | 985 hPa | - | - | - | - |
* Rain since midnight (hover to see other rain measurements)
** Current wind speed in m/s (hover to see current wind gust speed)